User: anonymous   Login
Location: Unspecified
(0.0000°N, 0.0000°E)
Time: 00:22:23
(UTC+00:00)
Language:

NANOSAT-1 - Orbit

View from above orbital plane
View from above orbital plane
View from above satellite
View from above satellite

Ground track
Ground track

The orbit data is extracted from the following two-line orbital elements,

1 28493U 04049B   21023.27877558  .00000064  00000-0  17605-4 0  9993
2 28493  98.1132 119.1075 0005695 117.2630 242.9159 14.73637594864729
Epoch (UTC): 23 January 2021 06:41:26
Eccentricity: 0.0005695
inclination: 98.1132°
perigee height: 645 km
apogee height: 653 km
right ascension of ascending node: 119.1075°
argument of perigee: 117.2630°
revolutions per day: 14.73637594
mean anomaly at epoch: 242.9159°
orbit number at epoch: 86472

The dashed part of the orbit path shows where the satellite is in the earth's shadow,  

DLR